This demonstration page uses our WeatherBlox Daily Observations layout. Learn more.

Left ArrowRight Arrow

Hourly Observations for January 7, 2016

Temp ( °F °C ) Dew Point ( °F °C ) Humidity (%) Winds ( mph kmh ) Pressure ( in mb ) Visibility ( mi km ) Precip ( " mm )
12:51 am 00:51 Mostly Cloudy 38 3.3 35 1.7 89 89 ENE 5 7 29.94 1014 10 16 N/A
1:51 am 01:51 Clear 38 3.3 34 1.1 86 86 SSE 5 7 29.93 1014 10 16 N/A
2:51 am 02:51 Partly Cloudy 37 2.8 34 1.1 89 89 E 6 9 29.93 1014 10 16 N/A
3:51 am 03:51 Mostly Clear 38 3.3 35 1.7 89 89 SE 7 11 29.92 1013 10 16 N/A
4:51 am 04:51 Mostly Cloudy 37 2.8 35 1.7 93 93 S 5 7 29.89 1012 10 16 N/A
5:51 am 05:51 Partly Cloudy 37 2.8 35 1.7 93 93 W 3 6 29.91 1013 10 16 N/A
6:51 am 06:51 Mostly Clear 36 2.2 34 1.1 93 93 N N/A 29.90 1013 10 16 N/A
7:51 am 07:51 Mostly Cloudy 38 3.3 35 1.7 89 89 ENE 8 13 29.89 1012 10 16 N/A
8:51 am 08:51 Mostly Cloudy 44 6.7 36 2.2 73 73 E 8 13 29.89 1012 10 16 N/A
9:51 am 09:51 Cloudy 46 7.8 37 2.8 71 71 ESE 12 19 29.91 1013 10 16 N/A
10:51 am 10:51 Partly Cloudy 49 9.4 35 1.7 59 59 SSE 16 26 29.88 1012 10 16 N/A
11:51 am 11:51 Cloudy 50 10 34 1.1 54 54 S 20 31 29.85 1011 10 16 N/A
12:51 pm 12:51 Cloudy 49 9.4 37 2.8 64 64 SSW 10 17 29.81 1010 10 16 N/A
1:24 pm 13:24 Cloudy with Haze 49 9.4 39 3.9 69 69 VRB 6 9 29.83 1010 1 1 N/A
1:31 pm 13:31 Cloudy with Haze 49 9.4 39 3.9 69 69 S 6 9 29.83 1010 3 5 N/A
1:51 pm 13:51 Cloudy 49 9.4 37 2.8 64 64 S 18 30 29.77 1008 10 16 N/A
2:51 pm 14:51 Cloudy with Light Rain 48 8.9 38 3.3 68 68 S 13 20 29.75 1007 10 16 N/A
3:48 pm 15:48 Cloudy with Light Rain 39 4 37 3 93 93 NW 24 39 29.85 1011 4 6 0.02 0.51
3:51 pm 15:51 Cloudy with Light Rain 40 4.4 38 3.3 93 93 NW 21 33 29.78 1009 4 6 0.03 0.76
3:58 pm 15:58 Cloudy with Rain 40 4.4 38 3.3 93 93 NW 20 31 29.85 1011 4 6 N/A
4:24 pm 16:24 Cloudy with Rain 38 3.3 37 2.8 97 97 WNW 17 28 29.88 1012 2 3 0.05 1.27
4:37 pm 16:37 Cloudy with Light Rain 38 3.3 37 2.8 97 97 WNW 18 30 29.88 1012 4 6 0.07 1.78
4:51 pm 16:51 Cloudy with Light Rain 38 3.3 37 2.8 97 97 WNW 17 28 29.83 1010 4 6 0.09 2.29
5:24 pm 17:24 Cloudy with Heavy Rain 37 2.8 36 2.2 96 96 WNW 15 24 29.94 1014 3 5 0.06 1.52
5:34 pm 17:34 Cloudy with Rain 37 3 36 2 93 93 NW 9 15 29.94 1014 4 6 N/A
5:51 pm 17:51 Mostly Cloudy with Light Rain 37 2.8 36 2.2 96 96 N 9 15 29.82 1010 10 16 0.09 2.29
6:51 pm 18:51 Mostly Cloudy 37 2.8 36 2.2 96 96 SSW 3 6 29.84 1011 10 16 N/A
7:51 pm 19:51 Mostly Clear 35 1.7 34 1.1 96 96 E 5 7 29.84 1011 10 16 N/A
8:13 pm 20:13 Mostly Cloudy 35 1.7 35 1.7 100 100 E 5 7 29.94 1014 10 16 N/A
8:51 pm 20:51 Cloudy 36 2.2 35 1.7 97 97 ESE 5 7 29.84 1010 10 16 N/A
9:23 pm 21:23 Cloudy 37 2.8 35 1.7 93 93 ESE 6 9 29.94 1014 10 16 N/A
9:46 pm 21:46 Cloudy with Light Rain 37 3 36 2 93 93 NE 3 6 29.94 1014 8 13 N/A
9:51 pm 21:51 Cloudy with Light Rain 37 2.8 36 2.2 96 96 NE 3 6 29.82 1010 8 13 N/A
9:58 pm 21:58 Mostly Cloudy with Light Rain 36 2.2 35 1.7 97 97 NNE 6 9 29.94 1014 10 16 N/A
10:10 pm 22:10 Mostly Cloudy 36 2.2 35 1.7 97 97 N N/A 29.94 1014 10 16 N/A
10:18 pm 22:18 Mostly Cloudy 36 2.2 35 1.7 97 97 NW 6 9 29.94 1014 10 16 N/A
10:51 pm 22:51 Cloudy with Light Rain 37 2.8 36 2.2 96 96 N N/A 29.83 1010 10 16 N/A
11:38 pm 23:38 Cloudy with Rain 38 3.3 37 2.8 97 97 WSW 3 6 29.94 1014 3 4 0.03 0.76
11:46 pm 23:46 Cloudy with Light Rain 37 3 37 3 100 100 W 3 6 29.94 1014 6 10 0.04 1.02
11:51 pm 23:51 Cloudy with Light Rain 38 3.3 37 2.8 97 97 N N/A 29.81 1010 7 11 0.04 1.02

Powered by AerisWeather